Location: El Carrer d�Abaix
(41.5797°N, 2.1791°E)
Time: 09:16:56
(UTC+00:00)

Cosmos 2315 Rocket - Pass Details

Date: 06 June 2020
Orbit: 966 x 1002 km, 82.9° (Epoch: 11 July)

Event Time Altitude Azimuth Distance (km) Brightness Sun altitude
Rises 22:16:10 0° 357° (N) 3,666 8.2 -22.1°
Reaches altitude 10° 22:18:47 10° 3° (N) 2,716 7.2 -22.3°
Maximum altitude 22:24:48 50° 78° (ENE) 1,221 4.4 -22.7°
Enters shadow 22:26:34 39° 123° (ESE) 1,414 4.4 -22.8°
